Location: Usti nad Labem
(50.6670°N, 14.0330°E)
Time: 22:08:07
(UTC+01:00)

Envisat - Pass Details

Date: 08 December 2020
Orbit: 764 x 766 km, 98.1° (Epoch: 15 January)

Event Time Altitude Azimuth Distance (km) Brightness Sun altitude
Rises 18:16:23 0° 208° (SSW) 3,223 6.8 -20.6°
Reaches altitude 10° 18:19:19 10° 225° (SW) 2,302 6.2 -21.0°
Maximum altitude 18:22:56 19° 271° (W) 1,745 5.7 -21.6°
Drops below altitude 10° 18:26:35 10° 317° (NW) 2,314 5.9 -22.2°
Sets 18:29:33 0° 335° (NNW) 3,246 6.5 -22.6°
